Time,TemperatureF,DewpointF,PressureIn,WindDirection,WindDirectionDegrees,WindSpeedMPH,WindSpeedGustMPH,Humidity,HourlyPrecipIn,Conditions,Clouds,dailyrainin,SoftwareType,DateUTC
2013-11-24 19:50:00,20.4,1.8,-100.00,NW,306,4.3,25.8,44,0.00,n/a,n/a,-99.99,Henriksen +1-Wire,2013-11-25 00:50:00,
2013-11-24 20:00:00,20.3,1.7,-100.00,WNW,288,5.5,18.5,44,0.00,n/a,n/a,-99.99,Henriksen +1-Wire,2013-11-25 01:00:00,
2013-11-24 20:10:00,20.3,1.5,-100.00,WNW,299,4.3,18.4,43,0.00,n/a,n/a,-99.99,Henriksen +1-Wire,2013-11-25 01:10:00,
2013-11-24 20:20:00,20.2,1.4,-100.00,NW,313,4.7,14.6,43,0.00,n/a,n/a,-99.99,Henriksen +1-Wire,2013-11-25 01:20:00,
2013-11-24 20:30:00,20.3,1.2,-100.00,WNW,295,4.9,13.6,43,0.00,n/a,n/a,-99.99,Henriksen +1-Wire,2013-11-25 01:30:00,
2013-11-24 20:40:00,19.9,-3.9,-100.00,NW,310,4.3,14.5,34,0.00,n/a,n/a,-99.99,Henriksen +1-Wire,2013-11-25 01:40:00,
2013-11-24 20:50:00,19.9,-7.2,-100.00,WNW,291,4.9,20.1,29,0.00,n/a,n/a,-99.99,Henriksen +1-Wire,2013-11-25 01:50:00,
2013-11-24 21:00:00,19.5,-2.1,-100.00,WNW,302,3.2,8.1,38,0.00,n/a,n/a,-99.99,Henriksen +1-Wire,2013-11-25 02:00:00,
2013-11-24 21:10:00,19.5,0.1,-100.00,West,281,3.1,15.3,42,0.00,n/a,n/a,-99.99,Henriksen +1-Wire,2013-11-25 02:10:00,
2013-11-24 21:20:00,19.5,-4.4,-100.00,WNW,297,3.3,15.3,34,0.00,n/a,n/a,-99.99,Henriksen +1-Wire,2013-11-25 02:20:00,
2013-11-24 21:30:00,19.3,-10.4,-100.00,WNW,285,1.2,13.8,26,0.00,n/a,n/a,-99.99,Henriksen +1-Wire,2013-11-25 02:30:00,
2013-11-24 21:40:00,19.2,-2.5,-100.00,WNW,283,4.6,10.4,38,0.00,n/a,n/a,-99.99,Henriksen +1-Wire,2013-11-25 02:40:00,
2013-11-24 21:50:00,19.1,-0.4,-100.00,WNW,302,4.8,15.1,42,0.00,n/a,n/a,-99.99,Henriksen +1-Wire,2013-11-25 02:50:00,
2013-11-24 22:00:00,19.0,0.4,-100.00,WNW,300,3.0,22.6,43,0.00,n/a,n/a,-99.99,Henriksen +1-Wire,2013-11-25 03:00:00,
2013-11-24 22:10:00,18.9,0.8,-100.00,WNW,282,3.0,9.7,44,0.00,n/a,n/a,-99.99,Henriksen +1-Wire,2013-11-25 03:10:00,
2013-11-24 22:20:00,18.8,0.8,-100.00,WNW,287,3.9,11.3,45,0.00,n/a,n/a,-99.99,Henriksen +1-Wire,2013-11-25 03:20:00,
2013-11-24 22:30:00,18.6,0.4,-100.00,NW,311,2.0,11.2,44,0.00,n/a,n/a,-99.99,Henriksen +1-Wire,2013-11-25 03:30:00,
2013-11-24 22:40:00,18.5,0.6,-100.00,WNW,303,4.2,10.5,45,0.00,n/a,n/a,-99.99,Henriksen +1-Wire,2013-11-25 03:40:00,
2013-11-24 22:50:00,18.3,0.7,-100.00,WNW,302,3.8,13.7,45,0.00,n/a,n/a,-99.99,Henriksen +1-Wire,2013-11-25 03:50:00,
2013-11-24 23:00:00,18.2,0.5,-100.00,WNW,300,3.6,14.5,45,0.00,n/a,n/a,-99.99,Henriksen +1-Wire,2013-11-25 04:00:00,
2013-11-24 23:10:00,18.5,1.4,-100.00,NNW,328,2.7,7.3,46,0.00,n/a,n/a,-99.99,Henriksen +1-Wire,2013-11-25 04:10:00,
2013-11-24 23:20:00,18.1,1.1,-100.00,WNW,293,2.7,14.5,47,0.00,n/a,n/a,-99.99,Henriksen +1-Wire,2013-11-25 04:20:00,
2013-11-24 23:30:00,18.0,0.6,-100.00,WNW,286,3.7,12.1,46,0.00,n/a,n/a,-99.99,Henriksen +1-Wire,2013-11-25 04:30:00,
2013-11-24 23:40:00,18.1,0.4,-100.00,West,277,0.5,10.5,45,0.00,n/a,n/a,-99.99,Henriksen +1-Wire,2013-11-25 04:40:00,
2013-11-24 23:50:00,17.6,-0.6,-100.00,NW,313,3.1,9.7,44,0.00,n/a,n/a,-99.99,Henriksen +1-Wire,2013-11-25 04:50:00,